| time (UTC) | temp C | wind direction | speed KPH | gust KPH | rain 1hr cm | rain 24hr cm | rain mn cm | humidity % | barometer mb |
| 20260505035345 | 3 | 0 | 0.0 | 0.0 | 0.53 | 0.23 | 0.23 | 89 | 1005.5 |
| 20260505034849 | 3 | 0 | 0.0 | 0.0 | 0.00 | 0.15 | 0.15 | 90 | 1005.4 |
| 20260505034342 | 3 | 0 | 0.0 | 0.0 | 0.00 | 0.15 | 0.15 | 90 | 1005.3 |
| 20260505033847 | 3 | 0 | 0.0 | 0.0 | 0.00 | 0.15 | 0.15 | 89 | 1005.4 |
| 20260505032730 | 4 | 0 | 0.0 | 0.0 | 0.10 | 0.15 | 0.15 | 89 | 1005.1 |
| 20260505032226 | 4 | 0 | 0.0 | 0.0 | 0.13 | 0.15 | 0.15 | 88 | 1004.9 |
| 20260505031725 | 4 | 0 | 0.0 | 0.0 | 0.23 | 0.15 | 0.15 | 88 | 1004.8 |
| 20260505031214 | 4 | 0 | 0.0 | 0.0 | 0.25 | 0.10 | 0.15 | 87 | 1004.7 |
| 20260505030722 | 4 | 0 | 0.0 | 0.0 | 0.23 | 0.10 | 0.13 | 87 | 1004.5 |
| 20260505030206 | 4 | 0 | 0.0 | 0.0 | 0.25 | 0.10 | 0.10 | 87 | 1004.4 |
| 20260505025706 | 4 | 0 | 0.0 | 0.0 | 0.33 | 0.08 | 0.08 | 86 | 1004.5 |
| 20260505025202 | 4 | 0 | 0.0 | 0.0 | 0.00 | 0.05 | 0.05 | 86 | 1004.6 |
| 20260505024703 | 4 | 0 | 0.0 | 0.0 | 0.00 | 0.03 | 0.03 | 86 | 1004.7 |
| 20260505024147 | 4 | 0 | 0.0 | 1.6 | 0.00 | 0.03 | 0.03 | 86 | 1004.7 |
| 20260505023642 | 4 | 0 | 0.0 | 1.6 | 0.00 | 0.03 | 0.03 | 86 | 1004.5 |
| 20260505023141 | 4 | 0 | 0.0 | 0.0 | 0.00 | 0.03 | 0.03 | 85 | 1004.0 |
| 20260505022639 | 4 | 0 | 0.0 | 4.8 | 0.00 | 0.03 | 0.03 | 85 | 1004.0 |
| 20260505022138 | 5 | 0 | 0.0 | 4.8 | 0.00 | 0.03 | 0.03 | 85 | 1003.8 |
| 20260505021632 | 5 | 0 | 0.0 | 4.8 | 0.00 | 0.03 | 0.03 | 85 | 1003.7 |
| 20260505021125 | 5 | 0 | 0.0 | 3.2 | 0.00 | 0.03 | 0.03 | 85 | 1003.9 |
| 20260505015935 | 5 | 0 | 0.0 | 4.8 | 0.00 | 0.03 | 0.03 | 84 | 1003.6 |
| 20260505014827 | 5 | 0 | 0.0 | 4.8 | 0.00 | 0.03 | 0.03 | 83 | 1003.3 |
| 20260505014336 | 5 | 0 | 0.0 | 4.8 | 0.00 | 0.03 | 0.03 | 83 | 1003.1 |
| 20260505013817 | 5 | 0 | 0.0 | 0.0 | 0.00 | 0.03 | 0.03 | 83 | 1003.4 |
| 20260505013324 | 5 | 0 | 0.0 | 1.6 | 0.00 | 0.03 | 0.03 | 83 | 1003.1 |
| 20260505012202 | 5 | 0 | 0.0 | 4.8 | 0.00 | 0.03 | 0.03 | 83 | 1003.2 |
| 20260505011708 | 6 | 0 | 0.0 | 4.8 | 0.00 | 0.03 | 0.03 | 83 | 1003.5 |
| 20260505011158 | 6 | 0 | 0.0 | 4.8 | 0.00 | 0.03 | 0.03 | 84 | 1003.4 |
| 20260505010655 | 6 | 0 | 0.0 | 4.8 | 0.00 | 0.03 | 0.03 | 84 | 1003.2 |
| 20260505010140 | 6 | 0 | 0.0 | 4.8 | 0.00 | 0.03 | 0.03 | 85 | 1003.4 |
| 20260505005639 | 6 | 0 | 0.0 | 0.0 | 0.00 | 0.03 | 0.03 | 85 | 1003.0 |
| 20260505005147 | 6 | 0 | 0.0 | 0.0 | 0.00 | 0.03 | 0.03 | 85 | 1003.0 |
| 20260505004637 | 5 | 0 | 0.0 | 3.2 | 0.00 | 0.03 | 0.03 | 85 | 1002.7 |
| 20260505004132 | 5 | 0 | 0.0 | 0.0 | 0.00 | 0.03 | 0.03 | 84 | 1002.9 |
| 20260505003619 | 5 | 0 | 0.0 | 3.2 | 0.00 | 0.03 | 0.03 | 83 | 1003.1 |
| 20260505003128 | 6 | 0 | 0.0 | 1.6 | 0.00 | 0.03 | 0.03 | 82 | 1003.2 |
| 20260505001958 | 6 | 0 | 1.6 | 8.0 | 0.00 | 0.00 | 0.00 | 79 | 1003.8 |
| 20260505001500 | 6 | 0 | 0.0 | 8.0 | 0.00 | 0.00 | 0.00 | 77 | 1004.1 |
| 20260505000401 | 6 | 0 | 1.6 | 4.8 | 0.00 | 0.00 | 0.00 | 72 | 1004.0 |
| 20260504235848 | 7 | 0 | 1.6 | 8.0 | 0.00 | 0.00 | 0.00 | 71 | 1003.9 |
| 20260504235343 | 7 | 0 | 3.2 | 8.0 | 0.00 | 0.00 | 0.00 | 69 | 1003.6 |
| 20260504234825 | 7 | 0 | 1.6 | 8.0 | 0.00 | 0.00 | 0.00 | 67 | 1003.4 |
| 20260504234310 | 7 | 0 | 1.6 | 8.0 | 0.00 | 0.00 | 0.00 | 67 | 1003.3 |
| 20260504233754 | 7 | 0 | 3.2 | 19.3 | 0.00 | 0.00 | 0.00 | 65 | 1002.9 |
| 20260504233235 | 7 | 0 | 3.2 | 19.3 | 0.00 | 0.00 | 0.00 | 66 | 1002.9 |
| 20260504232740 | 7 | 0 | 3.2 | 19.3 | 0.00 | 0.00 | 0.00 | 66 | 1002.5 |
| 20260504231618 | 7 | 0 | 3.2 | 14.5 | 0.00 | 0.00 | 0.00 | 65 | 1002.0 |
| 20260504231124 | 7 | 0 | 3.2 | 17.7 | 0.00 | 0.00 | 0.00 | 64 | 1002.0 |
| 20260504230616 | 7 | 0 | 3.2 | 17.7 | 0.00 | 0.00 | 0.00 | 61 | 1002.2 |
| 20260504225502 | 8 | 0 | 4.8 | 17.7 | 0.00 | 0.00 | 0.00 | 57 | 1001.8 |
| 20260504224948 | 9 | 0 | 4.8 | 22.5 | 0.00 | 0.00 | 0.00 | 54 | 1001.8 |
| 20260504223217 | 11 | 0 | 3.2 | 22.5 | 0.00 | 0.00 | 0.00 | 42 | 1001.5 |
| 20260504222721 | 12 | 0 | 3.2 | 12.9 | 0.00 | 0.00 | 0.00 | 41 | 1001.3 |
| 20260504222217 | 12 | 0 | 3.2 | 11.3 | 0.00 | 0.00 | 0.00 | 42 | 1001.2 |
| 20260504221702 | 12 | 0 | 3.2 | 11.3 | 0.00 | 0.00 | 0.00 | 44 | 1001.4 |
| 20260504221142 | 12 | 0 | 3.2 | 6.4 | 0.00 | 0.00 | 0.00 | 43 | 1001.5 |
| 20260504220648 | 12 | 0 | 3.2 | 0.0 | 0.00 | 0.00 | 0.00 | 43 | 1001.3 |
| 20260504220158 | 12 | 0 | 3.2 | 17.7 | 0.00 | 0.00 | 0.00 | 43 | 1001.3 |
| 20260504215010 | 13 | 0 | 3.2 | 14.5 | 0.00 | 0.00 | 0.00 | 41 | 1001.2 |
| 20260504213845 | 13 | 0 | 1.6 | 11.3 | 0.00 | 0.00 | 0.00 | 40 | 1001.3 |
| 20260504213349 | 13 | 0 | 1.6 | 8.0 | 0.00 | 0.00 | 0.00 | 39 | 1001.4 |
| 20260504212838 | 13 | 0 | 1.6 | 8.0 | 0.00 | 0.00 | 0.00 | 39 | 1001.4 |
| 20260504211648 | 13 | 0 | 1.6 | 12.9 | 0.00 | 0.00 | 0.00 | 40 | 1001.4 |
| 20260504210528 | 12 | 0 | 3.2 | 12.9 | 0.00 | 0.00 | 0.00 | 41 | 1001.6 |
| 20260504210013 | 12 | 0 | 3.2 | 12.9 | 0.00 | 0.00 | 0.00 | 43 | 1001.7 |
| 20260504205454 | 12 | 0 | 3.2 | 11.3 | 0.00 | 0.00 | 0.00 | 43 | 1002.1 |
| 20260504204943 | 12 | 0 | 3.2 | 11.3 | 0.00 | 0.00 | 0.00 | 44 | 1001.9 |
| 20260504204427 | 11 | 0 | 3.2 | 14.5 | 0.00 | 0.00 | 0.00 | 47 | 1002.0 |
| 20260504203917 | 11 | 0 | 3.2 | 14.5 | 0.00 | 0.00 | 0.00 | 48 | 1002.2 |
| 20260504202747 | 11 | 0 | 4.8 | 14.5 | 0.00 | 0.00 | 0.00 | 49 | 1002.3 |
| 20260504201015 | 11 | 0 | 6.4 | 16.1 | 0.00 | 0.00 | 0.00 | 47 | 1002.5 |
| 20260504195900 | 11 | 0 | 3.2 | 8.0 | 0.00 | 0.00 | 0.00 | 44 | 1002.4 |
| 20260504194752 | 11 | 0 | 3.2 | 14.5 | 0.00 | 0.00 | 0.00 | 43 | 1002.5 |
| 20260504193618 | 12 | 0 | 3.2 | 16.1 | 0.00 | 0.00 | 0.00 | 43 | 1002.3 |
| 20260504192500 | 12 | 0 | 3.2 | 16.1 | 0.00 | 0.00 | 0.00 | 44 | 1002.6 |
| 20260504190653 | 12 | 0 | 3.2 | 14.5 | 0.00 | 0.00 | 0.00 | 39 | 1002.5 |
| 20260504190138 | 13 | 0 | 4.8 | 14.5 | 0.00 | 0.00 | 0.00 | 38 | 1002.4 |
| 20260504185623 | 13 | 0 | 3.2 | 14.5 | 0.00 | 0.00 | 0.00 | 35 | 1002.1 |
| 20260504185127 | 13 | 0 | 3.2 | 11.3 | 0.00 | 0.00 | 0.00 | 34 | 1002.0 |
| 20260504184610 | 13 | 0 | 3.2 | 11.3 | 0.00 | 0.00 | 0.00 | 32 | 1001.9 |
| 20260504184120 | 13 | 0 | 3.2 | 14.5 | 0.00 | 0.00 | 0.00 | 33 | 1002.0 |
| 20260504183625 | 12 | 0 | 4.8 | 14.5 | 0.00 | 0.00 | 0.00 | 33 | 1002.0 |
| 20260504182500 | 12 | 0 | 3.2 | 19.3 | 0.00 | 0.00 | 0.00 | 37 | 1002.7 |
| 20260504182005 | 11 | 0 | 3.2 | 19.3 | 0.00 | 0.00 | 0.00 | 37 | 1002.7 |
| 20260504181504 | 11 | 0 | 1.6 | 19.3 | 0.00 | 0.00 | 0.00 | 36 | 1002.7 |
| 20260504181006 | 12 | 0 | 3.2 | 16.1 | 0.00 | 0.00 | 0.00 | 36 | 1003.0 |
| 20260504180514 | 12 | 0 | 3.2 | 16.1 | 0.00 | 0.00 | 0.00 | 33 | 1003.1 |
| 20260504180017 | 13 | 0 | 3.2 | 16.1 | 0.00 | 0.00 | 0.00 | 32 | 1003.0 |
| 20260504174855 | 13 | 0 | 1.6 | 12.9 | 0.00 | 0.00 | 0.00 | 29 | 1003.1 |
| 20260504174345 | 14 | 0 | 1.6 | 12.9 | 0.00 | 0.00 | 0.00 | 30 | 1002.9 |
| 20260504173833 | 14 | 0 | 3.2 | 12.9 | 0.00 | 0.00 | 0.00 | 29 | 1003.0 |
| 20260504173325 | 15 | 0 | 4.8 | 20.9 | 0.00 | 0.00 | 0.00 | 28 | 1003.0 |
| 20260504172821 | 15 | 0 | 3.2 | 20.9 | 0.00 | 0.00 | 0.00 | 29 | 1003.0 |
| 20260504172310 | 15 | 0 | 1.6 | 20.9 | 0.00 | 0.00 | 0.00 | 31 | 1003.0 |
| 20260504171150 | 14 | 0 | 3.2 | 11.3 | 0.00 | 0.00 | 0.00 | 30 | 1003.3 |
| 20260504170644 | 15 | 0 | 4.8 | 11.3 | 0.00 | 0.00 | 0.00 | 29 | 1003.4 |
| 20260504170130 | 15 | 0 | 3.2 | 17.7 | 0.00 | 0.00 | 0.00 | 30 | 1003.4 |
| 20260504150808 | 10 | 0 | 3.2 | 14.5 | 0.00 | 0.00 | 0.00 | 40 | 1005.0 |
| 20260504150312 | 10 | 0 | 3.2 | 14.5 | 0.00 | 0.00 | 0.00 | 40 | 1005.0 |
| 20260504141003 | 8 | 0 | 3.2 | 8.0 | 0.00 | 0.00 | 0.00 | 38 | 1005.1 |
| 20260504140447 | 8 | 0 | 1.6 | 8.0 | 0.00 | 0.00 | 0.00 | 39 | 1005.1 |
| 20260504130708 | 7 | 0 | 0.0 | 4.8 | 0.00 | 0.00 | 0.00 | 39 | 1004.8 |
| 20260504130203 | 7 | 0 | 1.6 | 4.8 | 0.00 | 0.00 | 0.00 | 40 | 1004.6 |
| 20260504110314 | 6 | 0 | 0.0 | 0.0 | 0.00 | 0.00 | 0.00 | 44 | 1005.3 |
| 20260504081744 | 7 | 0 | 1.6 | 4.8 | 0.00 | 0.00 | 0.00 | 41 | 1006.2 |
| 20260504081252 | 7 | 0 | 1.6 | 4.8 | 0.00 | 0.00 | 0.00 | 41 | 1006.2 |
| 20260504080732 | 7 | 0 | 1.6 | 4.8 | 0.00 | 0.00 | 0.00 | 41 | 1006.3 |
| 20260504080218 | 7 | 0 | 1.6 | 4.8 | 0.00 | 0.00 | 0.00 | 41 | 1006.4 |
| 20260504070311 | 7 | 0 | 1.6 | 4.8 | 0.00 | 0.00 | 0.00 | 42 | 1006.8 |
| 20260504050701 | 7 | 0 | 0.0 | 1.6 | 0.00 | 0.00 | 0.00 | 47 | 1007.6 |
| 20260504050142 | 7 | 0 | 0.0 | 0.0 | 0.00 | 0.00 | 0.00 | 47 | 1007.6 |
| 20260504044958 | 7 | 0 | 0.0 | 1.6 | 0.00 | 0.00 | 0.00 | 49 | 1007.7 |
| 20260504044458 | 7 | 0 | 0.0 | 1.6 | 0.00 | 0.00 | 0.00 | 48 | 1007.8 |
| 20260504043941 | 7 | 0 | 0.0 | 1.6 | 0.00 | 0.00 | 0.00 | 48 | 1007.9 |
| 20260504043423 | 7 | 0 | 0.0 | 1.6 | 0.00 | 0.00 | 0.00 | 48 | 1008.0 |
| 20260504042908 | 7 | 0 | 0.0 | 1.6 | 0.00 | 0.00 | 0.00 | 47 | 1008.0 |
| 20260504042400 | 7 | 0 | 0.0 | 1.6 | 0.00 | 0.00 | 0.00 | 48 | 1008.1 |
| 20260504041847 | 7 | 0 | 0.0 | 1.6 | 0.00 | 0.00 | 0.00 | 48 | 1008.1 |
| 20260504041332 | 7 | 0 | 0.0 | 1.6 | 0.00 | 0.00 | 0.00 | 47 | 1008.1 |
| 20260504040826 | 7 | 0 | 0.0 | 1.6 | 0.00 | 0.00 | 0.00 | 49 | 1008.1 |
| 20260504035706 | 7 | 0 | 0.0 | 1.6 | 0.00 | 0.00 | 0.00 | 49 | 1008.1 |